STARLINK-11300, 61243

Orbit data source: Space-Track

STARLINK-11300, 61243 is a payload satellite owned by SpaceX/Seattle (US) in LEO that was launched on Wed, 25 Sep 2024 UTC via an FALCON 9 launch vehicle from the Air Force Western Test Range (AFWTR). Payload-class satellites include a variety of spacecraft equipped with specific instruments for various scientific and technological missions. These include communications satellites like Starlink; space stations such as the ISS; scientific satellites like the Hubble; Earth observation satellites from companies like Planet Labs, Umbra, and HawkEye 360; GPS; miniature CubeSats for education and research; and military/defense satellites.

Loading next visibility...
Identifier
61243, 2024-175A
Orbit
LEO
Last TLE update
7 hours ago
Origin
Manufacturer
SpaceX/Seattle
Mission
Operational Commercial Communications
Bus & Motor
STARLINK V2M, Unknown motor
Mass
730 kg wet, ~700 kg dry
Launch date (UTC)
2024-09-25 (9 months ago)
Launch vehicle
FALCON 9
Launch site
Air Force Western Test Range (AFWTR)
Object type
Payload
Rocket body
Debris
Shape & HBR
Box + 2 Pan, 29 m
Radar Cross Section
36.964 m², Large (>1 m²)

Expand to show TLE details & history

TLE from 7 hours ago
0 STARLINK-11300
1 61243U 24175A   25182.81655105 -.00000674  00000-0 -70664-6 0  9992
2 61243  53.1592 213.0087 0001085  86.4304 273.6838 15.69702828 45018
Epoch: 2025-07-01T19:35Z
TLE epoch observation values (Epoch: 2025-07-01T19:35:50.01Z)
Latitude
-0.00003°
Longitude
-1.05627°
Altitude
360.615 km
Speed
7.694 km/s
True Right ascension
14h 12m 02s
True Declination
0° 00' 00"
Sunlit
Object was in full shadow at epoch
Visualization orbit readout
Latitude
-53.09926°
Longitude
-99.68695°
Altitude
378.921 km
Speed
7.682 km/s
Apparent Right ascension
04h 47m 39s
Apparent Declination
-53° 15' 12"
Sunlit
Object is in daylight
Visualization observer readout
Local Sidereal Time
14:31:20
Azimuth
228.497° WSW
Elevation
-63.411°
Doppler factor
1
Orbital elements
Apogee altitude
360.739 km
Perigee altitude
359.277 km
Semi-major axis
6,738.145 km
Eccentricity
0.00011
Inclination
53.1592°
RAAN
213.0087°
Arg. of periapsis
86.4304°
True anomaly
Unknown
Mean anomaly
273.6838°
Eccentric anomaly
Unknown
Mean motion
3.92403 °/min
Orbital period
91.74 mins
BSTAR
-7.0664e-7
Loading maneuver chart data...
Loading SW <> Apogee altitude chart data...
Loading historical data...
Loading historical data...
Loading historical data...
Loading historical data...
Loading historical data...
Loading historical data...
Loading historical data...

STARLINK-11300 Visibility forecast

Observer location: undefined°, undefined°

Span
Click to sort rows by Start time (UTC) header in descending order
Start Az.
Max El. time (UTC)
Max El. Az.
Max El.
End time (UTC)
End Az.
5 mins2025-07-02 04:57:12.389Z230.944° WSW2025-07-02 04:59:12.389Z240.109° WSW42.661°2025-07-02 05:02:12.389Z49.004° ENE
|